GLO1452 SBLO-SBPA

Flight info

Callsign GLO1452
Flight time N/A
Altitude 23000
Route UKDUN W48 GEGOB/N0453F350 UZ63 BRASA W48 EDVAX UZ63 BOLIP/N0452F360 UZ96 ASDEK
Aircraft B737/M-SDE2E3FGHIRWXY/LB1

Departure

Time 2026-04-12 22:21
Airport Governor José Richa Airport (SBLO)

Arrival

Time N/A
Airport Porto Alegre-Salgado Filho International Airport (SBPA)
Time Latitude Longitude Altitude Speed Heading
2026-04-12 22:15 -23.32889 -51.13867 1877 ft 0 kts 21°
2026-04-12 22:17 -23.32920 -51.13876 1878 ft 0 kts 163°
2026-04-12 22:17 -23.32919 -51.13878 1877 ft 0 kts 229°
2026-04-12 22:19 -23.32920 -51.13879 1877 ft 2 kts 229°
2026-04-12 22:19 -23.32960 -51.13925 1877 ft 11 kts 211°
2026-04-12 22:20 -23.33046 -51.13930 1877 ft 16 kts 132°
2026-04-12 22:20 -23.33104 -51.13778 1877 ft 23 kts 101°
2026-04-12 22:20 -23.33118 -51.13706 1878 ft 0 kts 101°
2026-04-12 22:20 -23.33125 -51.13670 1878 ft 26 kts 105°
2026-04-12 22:21 -23.33299 -51.13191 1877 ft 108 kts 110°
2026-04-12 22:21 -23.33623 -51.12208 1996 ft 160 kts 112°
2026-04-12 22:21 -23.34087 -51.11001 2663 ft 177 kts 111°
2026-04-12 22:21 -23.34494 -51.09758 3744 ft 168 kts 104°
2026-04-12 22:22 -23.34807 -51.08441 4328 ft 199 kts 102°
2026-04-12 22:22 -23.35101 -51.06780 4257 ft 249 kts 98°
2026-04-12 22:22 -23.35363 -51.04822 4776 ft 263 kts 96°
2026-04-12 22:22 -23.35550 -51.02959 6277 ft 229 kts 94°
2026-04-12 22:23 -23.35665 -51.01345 7684 ft 204 kts 93°
2026-04-12 22:23 -23.35734 -50.99800 8357 ft 215 kts 92°
2026-04-12 22:23 -23.35776 -50.98060 8586 ft 245 kts 91°
2026-04-12 22:23 -23.35793 -50.96155 9233 ft 250 kts 91°
2026-04-12 22:24 -23.35782 -50.94336 10423 ft 229 kts 91°
2026-04-12 22:24 -23.35746 -50.92666 11434 ft 216 kts 90°
2026-04-12 22:24 -23.35694 -50.90992 11888 ft 231 kts 89°
2026-04-12 22:24 -23.35628 -50.89147 12118 ft 255 kts 89°
2026-04-12 22:25 -23.35551 -50.87227 12812 ft 254 kts 89°
2026-04-12 22:25 -23.35461 -50.85387 13928 ft 234 kts 88°
2026-04-12 22:25 -23.35350 -50.83663 14713 ft 228 kts 87°
2026-04-12 22:25 -23.35218 -50.81877 14958 ft 249 kts 86°
2026-04-12 22:26 -23.35059 -50.79906 15139 ft 270 kts 86°
2026-04-12 22:26 -23.34883 -50.77885 15889 ft 262 kts 85°
2026-04-12 22:26 -23.34708 -50.75996 16941 ft 242 kts 84°
2026-04-12 22:26 -23.34535 -50.74180 17556 ft 246 kts 84°
2026-04-12 22:27 -23.34356 -50.72237 17597 ft 273 kts 84°
2026-04-12 22:27 -23.34164 -50.70110 17840 ft 287 kts 84°
2026-04-12 22:27 -23.33981 -50.67995 18738 ft 271 kts 85°
2026-04-12 22:27 -23.33820 -50.66027 19649 ft 254 kts 85°
2026-04-12 22:28 -23.33672 -50.64110 19974 ft 267 kts 85°
2026-04-12 22:28 -23.33550 -50.61928 19541 ft 315 kts 95°
2026-04-12 22:28 -23.34298 -50.59600 19449 ft 341 kts 129°
2026-04-12 22:28 -23.36098 -50.57859 19631 ft 357 kts 151°
2026-04-12 22:29 -23.38351 -50.56572 19772 ft 376 kts 161°
2026-04-12 22:29 -23.40867 -50.55672 20294 ft 379 kts 167°
2026-04-12 22:29 -23.43365 -50.54941 21442 ft 366 kts 169°
2026-04-12 22:29 -23.45818 -50.54260 22385 ft 363 kts 169°
2026-04-12 22:30 -23.48281 -50.53580 23046 ft 368 kts 169°
2026-04-12 22:30 -23.50781 -50.52880 23636 ft 374 kts 169°
2026-04-12 22:30 -23.53313 -50.52160 24184 ft 378 kts 169°
2026-04-12 22:30 -23.55832 -50.51444 24772 ft 380 kts 169°
2026-04-12 22:31 -23.58393 -50.50719 25379 ft 382 kts 169°
2026-04-12 22:31 -23.60969 -50.49989 25963 ft 384 kts 169°
2026-04-12 22:31 -23.63567 -50.49253 26533 ft 387 kts 169°
2026-04-12 22:31 -23.66186 -50.48510 27030 ft 391 kts 169°
2026-04-12 22:32 -23.68840 -50.47757 27062 ft 401 kts 169°
2026-04-12 22:32 -23.71586 -50.46980 27084 ft 414 kts 169°
2026-04-12 22:32 -23.74415 -50.46177 27095 ft 426 kts 169°
2026-04-12 22:32 -23.76333 -50.45633 27098 ft 433 kts 169°
2026-04-12 22:33 -23.79269 -50.44796 27097 ft 437 kts 169°
2026-04-12 22:33 -23.82203 -50.43957 27083 ft 434 kts 169°
2026-04-12 22:33 -23.85116 -50.43122 27084 ft 432 kts 168°
2026-04-12 22:33 -23.88963 -50.42020 27080 ft 430 kts 168°